Вернуться в каталог

FENGYUN 1C DEB

LostSSO
NORAD 30964·DEBRIS·🇨🇳 China

Запущен May 10, 1999 с Taiyuan Satellite Launch Center

Loading…

Ближайшие Пролёты (ближайшие 24 часа)

TLE

УстаревшееSource: Space-Track

Эпоха: Jun 24, 2026, 03:00 UTC

1 30964U 99025BBE 26175.12561521  .00002033  00000-0  12615-2 0  9996
2 30964  98.6811 137.8112 0141256  56.4289   3.5576 14.01333164981036

Отслеживайте FENGYUN 1C DEB в реальном времени с AllMySat

Download on the App Store